Location: Black River Observatory
(43.1000°N, 82.6200°W)
Time: 20:03:03
(UTC-04:00)

Daily predictions for brighter satellites

Satellite Brightness Start Highest point End
(mag) Time Altitude Azimuth Time Altitude Azimuth Time Altitude Azimuth
SeaSat 1 3.3 21:25:32 10° ESE 21:30:04 38° NE 21:34:37 10° NNW
Cosmos 1302 Rocket 4.0 21:31:16 10° NNW 21:36:32 82° ENE 21:41:47 10° SSE
Cosmos 2237 Rocket 4.1 21:32:00 10° WSW 21:37:08 35° NW 21:42:19 10° N
USA 186 3.3 21:35:37 10° SSW 21:38:09 29° W 21:40:34 10° NW
CZ-2C R/B 1.1 21:37:45 10° S 21:40:01 53° W 21:42:18 10° NNW
DEBRIS 2.9 21:36:51 10° WNW 21:43:23 70° SW 21:45:47 11° SE
Cosmos 2278 Rocket 4.3 21:39:22 10° NW 21:43:51 24° WSW 21:48:20 10° SSW
Cosmos 1461 2.9 21:41:13 10° NNW 21:45:34 88° NE 21:49:39 10° SSE
ATLAS 3B R/B 3.8 21:44:39 10° SSE 21:50:43 26° ESE 21:56:42 10° ENE
SJ-11-01 4.5 21:46:17 10° S 21:50:56 75° WSW 21:55:37 10° NNW
Tsikada Rocket 4.2 21:46:29 10° S 21:52:44 59° E 21:58:59 10° NNE
ARGOS 4.3 21:51:45 10° SE 21:56:19 30° ENE 22:00:58 10° N
Cosmos 2369 Rocket 3.2 21:51:50 10° N 21:56:57 33° NE 22:01:39 12° ESE
Cosmos 2058 Rocket 4.3 21:55:36 10° NNW 21:59:44 42° W 22:03:50 10° SSW
Cosmos 1666 3.3 21:57:02 10° NNW 22:00:54 60° W 22:04:43 10° S
APEX 4.4 21:57:18 10° NW 22:01:17 51° WSW 22:06:26 10° S
Abrixas rocket 3.9 22:00:52 10° W 22:03:45 25° SW 22:06:15 12° SSE
ERS-1 Rocket 3.7 21:59:21 10° S 22:04:13 51° W 22:09:08 10° NNW
Cosmos 1602 Rocket 3.6 21:59:53 10° S 22:04:22 86° E 22:08:52 10° N
SL-16 R/B 3.5 22:00:12 10° SW 22:05:35 45° WNW 22:11:02 10° NNE
Atlas Centaur 2 3.8 21:59:51 10° SW 22:06:10 30° SSE 22:12:43 12° ESE
USA 234 3.5 22:01:10 10° ESE 22:07:34 67° NE 22:14:06 10° NW
Cosmos 1825 Rocket 4.5 22:05:59 14° SSE 22:09:14 31° E 22:13:09 10° NNE
Envisat 3.0 22:05:56 10° SSE 22:11:00 85° WSW 22:16:08 10° NNW
MetOp-B 4.2 22:06:59 12° SSE 22:11:56 67° ENE 22:17:16 10° N
Cosmos 1812 Rocket 3.5 22:09:45 10° N 22:14:09 82° E 22:18:12 12° S
ISS -3.1 22:12:53 10° SW 22:16:01 44° SE 22:19:09 10° ENE
PSLV R/B 3.6 22:16:52 10° WSW 22:20:17 48° SSE 22:22:59 15° E
CZ-4 R/B 4.5 22:15:57 10° NNE 22:20:38 39° E 22:24:19 15° SSE
Cosmos 1939 Rocket 3.8 22:17:23 10° S 22:21:23 47° W 22:25:25 10° NNW
SL-08 RB Rocket 4.4 22:21:17 18° SE 22:24:09 38° ENE 22:28:22 10° N
H-2A R/B 3.7 22:24:05 10° SSW 22:27:50 30° W 22:31:42 10° NW
SPOT 5 3.0 22:24:58 11° S 22:29:07 61° WSW 22:33:25 10° NNW
Cosmos 1953 4.4 22:27:34 10° NE 22:29:32 13° ENE 22:30:51 12° E
Lacrosse 5 rocket 4.2 22:26:59 10° WNW 22:29:58 20° NNW 22:33:04 10° NNE
Cosmos 1634 Rocket 4.1 22:23:57 10° N 22:30:04 61° E 22:34:40 18° SSE
COSMOS 2455 2.8 22:25:20 10° SSW 22:31:20 82° ESE 22:37:23 10° NNE
Cosmos 1515 3.6 22:28:50 13° S 22:32:12 78° E 22:36:04 10° N
USA 245 4.2 22:28:23 16° SSE 22:33:13 76° ENE 22:38:20 10° N
USA 81 4.1 22:28:38 10° N 22:33:55 67° E 22:37:42 19° SSE
Cosmos 1603 4.1 22:28:59 10° SW 22:34:33 65° WNW 22:40:09 10° NNE
BREEZE-M DEB (TANK) 4.3 22:33:52 10° WSW 22:34:47 12° SW 22:35:26 11° SSW
Cosmos 1066 Rocket 4.4 22:30:02 13° S 22:34:58 59° E 22:40:40 10° NNE
YAOGAN 6 2.7 22:39:45 23° S 22:42:01 80° WSW 22:45:47 10° NNW
Terra 2.8 22:43:54 22° ESE 22:46:12 34° ENE 22:50:29 10° N
Cosmos 1992 Rocket 4.0 22:41:54 10° NNW 22:47:09 78° WSW 22:50:30 22° SSE
Cosmos 1346 Rocket 2.8 22:48:51 29° SSE 22:50:40 59° E 22:54:32 10° NNE
Cosmos 2279 Rocket 4.2 22:47:18 10° N 22:53:26 54° ENE 22:56:57 25° SE
Cosmos 1953 Rocket 3.5 22:52:36 24° S 22:55:09 72° E 22:59:36 10° NNE
Cosmos 1943 3.1 22:52:19 10° SSW 22:57:58 84° ESE 23:03:43 10° NNE
H-2A R/B 2.3 22:57:40 28° SE 22:59:59 50° ENE 23:04:53 10° N
Cosmos 1943 Rocket 2.9 22:56:44 10° NNW 23:02:00 42° ENE 23:04:49 25° ESE
Geosat 4.0 22:58:20 10° NE 23:03:20 60° ESE 23:06:36 21° S
Cosmos 1842 3.8 23:04:01 36° ESE 23:04:39 39° E 23:08:19 10° NNE
Lacrosse 4 Rocket 1.2 23:03:03 29° S 23:04:59 64° ESE 23:09:03 10° NE
SAR-Lupe-2 3.8 23:05:25 43° ESE 23:06:14 54° ENE 23:09:45 10° N
Meteor 1-21 4.3 23:03:33 25° S 23:06:55 64° E 23:12:41 10° NNE
SeaSat 1 3.8 23:04:20 16° SSW 23:07:37 31° WSW 23:12:00 10° NW
Cosmos 1190 Rocket 4.0 23:03:10 12° SSW 23:08:09 88° WNW 23:13:31 10° NNE
SPOT 1/Viking Rocket 4.1 23:05:20 20° S 23:08:48 53° W 23:13:51 10° NNW
Cosmos-2242 3.5 23:06:10 10° N 23:10:25 46° ENE 23:11:38 36° ESE
Cosmos 1900 4.4 23:07:02 20° SSW 23:10:33 61° ESE 23:15:38 10° NE
Cosmos 1758 4.0 23:11:40 10° N 23:15:33 39° ENE 23:16:19 36° ESE
DMSP B5D2-2 4.1 23:18:59 10° NNE 23:24:14 62° ESE 23:26:13 37° SSE
Cosmos 676 Rocket 3.9 23:21:48 27° S 23:24:47 79° ESE 23:30:08 10° NNE
Cosmos 1766 3.3 23:21:26 10° NNW 23:25:26 75° W 23:26:30 47° SSW
Cosmos 1758 Rocket 4.0 23:27:03 26° SSW 23:29:19 60° W 23:33:39 10° N
Cosmos 1140 Rocket 3.9 23:28:55 39° SE 23:29:53 43° ESE 23:34:50 10° NNE
CARTOSAT-1 3.5 23:31:25 47° S 23:32:37 79° W 23:36:58 10° NNW
ARGOS 4.2 23:33:16 21° SSW 23:36:24 39° W 23:41:29 10° NNW
ATLAS 3B R/B 3.1 23:33:09 10° SW 23:40:52 75° NW 23:48:25 10° NNE
Cosmos 2369 Rocket 3.1 23:35:48 10° NW 23:41:01 39° WSW 23:43:28 26° SSW
USA 234 4.0 23:48:30 30° S 23:50:48 38° SW 23:56:53 10° WNW
ISS -1.4 23:49:34 10° W 23:52:33 31° NNW 23:55:32 10° NE
Cosmos 1470 3.6 23:50:20 10° N 23:53:49 36° ENE 23:53:49 36° ENE
SL-27 R/B 2.7 23:54:51 64° N 23:54:51 64° N 23:57:48 10° NNE
